SL-16 DEB

Satellite information

Favourite Embed

Satellite Type and Status

DEBRISIN ORBIT

Key statistics

Satellite SL-16 DEB at a glance.

Uptime

12041

Days in orbit

Revolutions

≈ 14.1

Per day

Orbit

LEO

Low Earth Orbit

Inclination

70.8

Latest

Satellite identification and parameters

Extended collection of information and parameters for SL-16 DEB.

Object identification

Identified? True

Debris? True

Object name: SL-16 DEB

International designator: 1992-093DZ

Object number (NORAD): 22432

Object ID (CCSDS): 22432

Country: COMMONWEALTH OF INDEPENDENT STATES (CIS)

Current information (Y/N): Y

RCS size: SMALL

Orbital parameters

Period: 102.35 minutes

Inclination: 70.8337 deg

SMA: 7247.994 km

Apoapsis: 945.011 km

Periapsis: 794.707 km

RAAN: 276.0025 deg

Eccentricy: 0.01036865

Argument of periapsis: 260.964 deg

Mean anomaly: 221.3903 deg

Mean motion: 14.06941396 rev/day

Mean motion (dot): 0.00001507 rev/day2

B* drag term: 0.00088782942 1/REarth

Two-line elements (TLE)

Creation date: Dec. 12, 2025, 10:14 a.m.

Reference frame: TEME

Reference center: EARTH

Epoch: Dec. 12, 2025, 6:17 a.m. UTC

TLE line 0: 0 SL-16 DEB

TLE line 1: 1 22432U 92093DZ 25346.26219262 .00001507 00000-0 88783-3 0 9996

TLE line 2: 2 22432 70.8337 276.0025 0103686 260.9640 221.3903 14.06941396679584

Live tracking on map

Real-time ground track for satellite SL-16 DEB.

In-orbit conjunctions

A list of the most updated potential collisions computed for object SL-16 DEB.

Target Orbit TCA Probability of collision Miss distance Type
IRS 1B SSO 2025-01-30 18:40:58 0.000164475 87.0 (m) PAYLOAD

Associated space launch

Second generation ELING satellite

SL-16 DEB was lifted into orbit during the mission ‘Zenit-2 | Tselina-2 12’, on board a Zenit-2 space rocket.

The launch took place on Dec. 25, 1992, 5:56 a.m. from 45/1.

For more information about the launch, click the button.

Launch to space Zenit-2 | Tselina-2 12
Zenit-2 | Tselina-2 12

Agency: N/A

Status: Launch Successful

Launch date: Dec. 25, 1992, 5:56 a.m. UTC

Rocket: Zenit-2

Launch pad: 45/1

Location: Baikonur Cosmodrome, Republic of Kazakhstan

...

Latest news about this satellite

There are no fresh news available about this satellite. Check back as we update our databases every day.


Newsletter sign-up

Weekly statistics, charts and insights to help you stay on top of the space industry.